Home > Weather > Chemnitz > Past weeks

Flag for Germany Past Weather in Chemnitz, Saxony, Germany — Yesterday and Last 2 Weeks

Now
70 °F

Passing clouds.


Feels Like: 70 °F
Forecast: 63 / 75 °F
Wind: 3 mph from Northwest

Location: Dresden-Klotzsche

Current Time: Aug 29, 2016 at 12:40:44 AM

Latest Report: Aug 29, 2016 at 12:20 AM


Visibility: N/A

Pressure: 29.95 "Hg

Humidity: 69%

Dew Point: 59 °F

Location of ChemnitzLocation

Past Weather in Chemnitz — Graph

°F

Chemnitz Temperature Yesterday

Maximum temperature yesterday: 90 °F (at 2:20 PM)
Minimum temperature yesterday: 61 °F (at 3:50 AM)
Average temperature yesterday: 76 °F

High & Low Weather Summary for the Past Weeks

 TemperatureHumidityPressure
High90 °F (Aug 28, 2:20 PM)100% (Aug 15, 3:50 AM)30.36 "Hg (Aug 15, 3:50 AM)
Low46 °F (Aug 18, 5:20 AM)29% (Aug 28, 2:50 PM)29.80 "Hg (Aug 18, 3:50 PM)
Average67 °F67%30.09 "Hg
* Reported Aug 13 11:20 PM — Aug 28 11:20 PM, Chemnitz, Weather by CustomWeather, © 2016

Note: Actual official high and low records may vary slightly from our data, if they occured in-between our weather recording intervals... More about our weather records

Advertising

Chemnitz Weather History for the Previous 24 Hours

Scroll right to see more
 ConditionsComfort  
Time TempWeatherWind HumidityBarometerVisibility
11:20 PM
Sun, Aug 28
72 °FThundershowers. Partly cloudy.13 mph65%29.95 "HgN/A
10:50 PM73 °FThundershowers. Partly cloudy.18 mph61%29.95 "Hg6 mi
10:20 PM81 °FPartly cloudy.13 mph42%29.95 "HgN/A
9:50 PM81 °FPassing clouds.8 mph48%29.92 "HgN/A
9:20 PM79 °FPassing clouds.8 mph54%29.89 "HgN/A
8:50 PM79 °FSunny.9 mph54%29.89 "Hg10 mi
8:20 PM81 °FSunny.9 mph51%29.89 "Hg10 mi
7:50 PM81 °FScattered clouds.8 mph51%29.89 "HgN/A
7:20 PM82 °FScattered clouds.8 mph48%29.89 "HgN/A
6:50 PM84 °FScattered clouds.9 mph45%29.89 "HgN/A
6:20 PM86 °FSunny.8 mph43%29.89 "Hg10 mi
5:50 PM88 °FSunny.8 mph38%29.89 "Hg10 mi
5:20 PM88 °FSunny.8 mph38%29.92 "Hg10 mi
4:50 PM90 °FSunny.12 mph36%29.92 "Hg10 mi
4:20 PM90 °FSunny.9 mph31%29.92 "Hg10 mi
3:50 PM90 °FSunny.10 mph33%29.95 "Hg10 mi
3:20 PM90 °FSunny.9 mph33%29.95 "Hg10 mi
2:50 PM90 °FSunny.8 mph29%29.95 "Hg10 mi
2:20 PM90 °FPassing clouds.9 mph36%29.95 "HgN/A
1:50 PM88 °FSunny.9 mph38%29.98 "Hg10 mi
1:20 PM88 °FSunny.7 mph35%29.98 "Hg10 mi
12:50 PM86 °FSunny.6 mph35%29.98 "Hg10 mi
12:20 PM86 °FPassing clouds.6 mph40%29.98 "HgN/A
11:50 AM84 °FSunny.7 mph45%29.98 "Hg10 mi
11:20 AM82 °FSunny.8 mph48%30.01 "Hg10 mi
10:50 AM81 °FSunny.9 mph51%29.98 "Hg10 mi
10:20 AM79 °FSunny.8 mph54%30.01 "Hg10 mi
9:50 AM77 °FSunny.9 mph57%30.01 "Hg10 mi
9:20 AM73 °FSunny.8 mph65%30.01 "Hg10 mi
8:50 AM72 °FSunny.5 mph69%30.01 "Hg10 mi
8:20 AM68 °FSunny.7 mph78%30.01 "Hg10 mi
7:50 AM66 °FSunny.7 mph78%30.01 "Hg10 mi
7:20 AM63 °FSunny.7 mph88%30.01 "Hg10 mi
6:50 AM61 °FClear.5 mph88%30.01 "Hg10 mi
6:20 AM64 °FClear.6 mph78%30.01 "Hg10 mi
5:50 AM61 °FClear.6 mph88%30.01 "Hg10 mi
5:20 AM61 °FClear.5 mph88%30.01 "Hg10 mi
4:50 AM61 °FClear.7 mph94%30.01 "Hg10 mi
4:20 AM61 °FClear.6 mph88%30.01 "Hg10 mi
3:50 AM61 °FClear.7 mph88%30.04 "Hg10 mi
3:20 AM63 °FClear.8 mph83%30.04 "Hg10 mi
2:50 AM68 °FClear.5 mph69%30.01 "Hg10 mi
2:20 AM68 °FClear.3 mph69%30.04 "Hg10 mi
1:50 AM68 °FClear.3 mph69%30.04 "Hg10 mi
1:20 AM66 °FClear.5 mph73%30.04 "Hg10 mi
12:50 AM66 °FClear.6 mph73%30.07 "Hg10 mi
12:20 AM66 °FClear.7 mph78%30.07 "Hg10 mi
Weather by CustomWeather, © 2016

See weather overviewHow to use our weather pages